KC7NGC-B Weather Reports


time (UTC)temp
F
wind
direction
speed
knots
gust
knots
rain 1hr
in
rain 24hr
in
rain mn
in
humidity
%
barometer
mb
20260906025621 66 318 5.2 7.8 0.00 0.00 0.00 1 1017.3
20260906024618 66 314 3.5 5.2 0.00 0.00 0.00 1 1017.3
20260906023634 67 315 4.3 5.2 0.00 0.00 0.00 1 1017.3
20260906022630 68 327 2.6 4.3 0.00 0.00 0.00 1 1017.3
20260906021626 69 336 2.6 5.2 0.00 0.00 0.00 1 1017.2
20260906020623 69 333 4.3 5.2 0.00 0.00 0.00 1 1017.3
20260906015619 71 319 2.6 4.3 0.00 0.00 0.00 1 1017.1
20260906014635 71 318 2.6 3.5 0.00 0.00 0.00 1 1017.2
20260906013651 71 13 0.9 1.7 0.00 0.00 0.00 1 1017.4
20260906012627 72 351 1.7 2.6 0.00 0.00 0.00 1 1017.4
20260906011623 72 1 2.6 3.5 0.00 0.00 0.00 1 1017.2
20260906010619 73 18 2.6 2.6 0.00 0.00 0.00 1 1017.2
20260906005635 74 343 1.7 2.6 0.00 0.00 0.00 1 1017.3
20260906004651 74 0.0 0.0 0.00 0.00 0.00 1 1017.3
20260906003628 73 32 0.9 2.6 0.00 0.00 0.00 1 1017.2
20260906002624 73 52 1.7 1.7 0.00 0.00 0.00 1 1017.4
20260906001620 72 32 2.6 3.5 0.00 0.00 0.00 1 1017.4
20260906000616 73 23 3.5 4.3 0.00 0.00 0.00 1 1017.5
20260905235633 73 322 2.6 3.5 0.00 0.00 0.00 1 1017.4
20260905234629 73 10 3.5 4.3 0.00 0.00 0.00 1 1017.5
20260905233625 73 321 3.5 5.2 0.00 0.00 0.00 1 1017.5
20260905232701 74 10 3.5 5.2 0.00 0.00 0.00 1 1017.5
20260905231617 74 34 2.6 3.5 0.00 0.00 0.00 1 1017.4
20260905230634 73 32 1.7 2.6 0.00 0.00 0.00 1 1017.7
20260905225630 72 216 1.7 2.6 0.00 0.00 0.00 1 1017.6
20260905224628 73 38 1.7 3.5 0.00 0.00 0.00 1 1017.7
20260905223622 72 103 1.7 2.6 0.00 0.00 0.00 1 1017.7
20260905222619 71 60 3.5 6.1 0.00 0.00 0.00 1 1017.7
20260905221635 72 302 2.6 4.3 0.00 0.00 0.00 1 1018.0
20260905220631 71 313 2.6 5.2 0.00 0.00 0.00 1 1018.0
20260905215627 70 110 1.7 1.7 0.00 0.00 0.00 1 1018.0
20260905214623 72 316 5.2 8.7 0.00 0.00 0.00 1 1018.1
20260905213639 71 312 4.3 7.0 0.00 0.00 0.00 1 1018.3
20260905212636 71 32 2.6 4.3 0.00 0.00 0.00 1 1018.3
20260905211632 70 40 3.5 5.2 0.00 0.00 0.00 1 1018.5
20260905210628 70 238 2.6 4.3 0.00 0.00 0.00 1 1018.7
20260905205624 70 311 2.6 3.5 0.00 0.00 0.00 1 1018.6
20260905204700 70 2 5.2 7.8 0.00 0.00 0.00 1 1018.5
20260905203616 69 338 4.3 7.8 0.00 0.00 0.00 1 1018.5
20260905202713 69 27 3.5 5.2 0.00 0.00 0.00 1 1018.6
20260905201628 70 341 5.2 9.6 0.00 0.00 0.00 1 1018.6
20260905200649 69 320 5.2 9.6 0.00 0.00 0.00 1 1018.7
20260905195641 68 330 4.3 7.0 0.00 0.00 0.00 1 1018.9
20260905194617 69 336 7.8 11.3 0.00 0.00 0.00 1 1018.9
20260905193653 68 317 6.1 7.0 0.00 0.00 0.00 1 1018.9
20260905192629 68 357 9.6 13.0 0.00 0.00 0.00 1 1018.7
20260905191625 69 338 7.8 9.6 0.00 0.00 0.00 1 1019.0
20260905190621 67 355 7.0 10.4 0.00 0.00 0.00 1 1019.0
20260905185617 67 289 4.3 6.1 0.00 0.00 0.00 1 1019.2
20260905184654 67 321 5.2 8.7 0.00 0.00 0.00 1 1019.0
20260905183630 65 282 3.5 4.3 0.00 0.00 0.00 1 1019.3
20260905182627 65 358 7.0 11.3 0.00 0.00 0.00 1 1019.3
20260905181622 64 327 1.7 3.5 0.00 0.00 0.00 1 1019.4
20260905180639 65 358 4.3 7.8 0.00 0.00 0.00 1 1019.6
20260905175634 64 352 5.2 7.0 0.00 0.00 0.00 1 1019.6
20260905174710 64 22 2.6 5.2 0.00 0.00 0.00 1 1019.8
20260905173626 64 6 5.2 7.8 0.00 0.00 0.00 1 1019.8
20260905172622 64 11 5.2 7.0 0.00 0.00 0.00 1 1019.7
20260905171618 63 8 5.2 7.8 0.00 0.00 0.00 1 1019.7
20260905170635 62 357 7.0 8.7 0.00 0.00 0.00 1 1019.7
20260905165631 62 3 4.3 5.2 0.00 0.00 0.00 1 1019.7
20260905164627 63 18 4.3 5.2 0.00 0.00 0.00 1 1019.7
20260905163623 62 360 6.1 7.8 0.00 0.00 0.00 1 1019.3
20260905162620 62 360 7.0 8.7 0.00 0.00 0.00 1 1019.2
20260905161636 61 352 6.1 8.7 0.00 0.00 0.00 1 1019.1
20260905160632 60 327 7.0 8.7 0.00 0.00 0.00 1 1019.0
20260905155628 60 314 6.1 7.8 0.00 0.00 0.00 1 1019.2
20260905154624 60 335 6.1 7.8 0.00 0.00 0.00 1 1019.2
20260905153620 60 326 5.2 6.1 0.00 0.00 0.00 1 1019.2
20260905152617 59 343 4.3 5.2 0.00 0.00 0.00 1 1019.4
20260905151653 59 319 3.5 4.3 0.00 0.00 0.00 1 1019.5
20260905150649 58 263 1.7 1.7 0.00 0.00 0.00 1 1019.5
20260905145625 58 347 3.5 4.3 0.00 0.00 0.00 1 1019.5
20260905144621 57 317 1.7 3.5 0.00 0.00 0.00 1 1019.4
20260905143618 57 348 1.7 2.6 0.00 0.00 0.00 1 1019.4
20260905142634 57 261 1.7 3.5 0.00 0.00 0.00 1 1019.5
20260905141630 56 328 1.7 2.6 0.00 0.00 0.00 1 1019.2
20260905140626 55 340 0.9 2.6 0.00 0.00 0.00 1 1019.2
20260905135622 55 0.0 1.7 0.00 0.00 0.00 1 1019.1
20260905134618 55 345 0.9 2.6 0.00 0.00 0.00 1 1019.0
20260905133735 56 93 0.0 1.7 0.00 0.00 0.00 1 1018.9
20260905132651 56 73 1.7 2.6 0.00 0.00 0.00 1 1018.8
20260905131627 56 0.0 1.7 0.00 0.00 0.00 1 1018.7
20260905130643 56 0.0 1.7 0.00 0.00 0.00 1 1018.6
20260905125619 56 205 2.6 4.3 0.00 0.00 0.00 1 1018.6
20260905124618 55 222 1.7 1.7 0.00 0.00 0.00 1 1018.4
20260905123633 55 266 1.7 2.6 0.00 0.00 0.00 1 1018.1
20260905122628 56 16 1.7 1.7 0.00 0.00 0.00 1 1018.4
20260905121624 55 199 0.9 1.7 0.00 0.00 0.00 1 1018.3
20260905120620 56 316 2.6 3.5 0.00 0.00 0.00 1 1018.1
20260905115616 55 336 2.6 3.5 0.00 0.00 0.00 1 1018.0
20260905114652 56 316 2.6 3.5 0.00 0.00 0.00 1 1017.8
20260905113648 56 338 4.3 5.2 0.00 0.00 0.00 1 1017.8
20260905112624 57 345 2.6 4.3 0.00 0.00 0.00 1 1018.0
20260905111621 57 334 3.5 5.2 0.00 0.00 0.00 1 1017.8
20260905110617 58 338 3.5 5.2 0.00 0.00 0.00 1 1017.7
20260905105633 58 327 5.2 6.1 0.00 0.00 0.00 1 1017.8
20260905104629 58 333 3.5 5.2 0.00 0.00 0.00 1 1017.8
20260905103625 56 342 0.0 0.9 0.00 0.00 0.00 1 1017.9
20260905102621 56 216 1.7 1.7 0.00 0.00 0.00 1 1018.0
20260905101617 56 303 2.6 3.5 0.00 0.00 0.00 1 1017.8
20260905100633 56 325 2.6 3.5 0.00 0.00 0.00 1 1017.7
20260905095630 56 327 3.5 4.3 0.00 0.00 0.00 1 1017.9
20260905094626 56 338 3.5 4.3 0.00 0.00 0.00 1 1017.8
20260905093622 56 330 2.6 3.5 0.00 0.00 0.00 1 1017.8
20260905092618 57 328 3.5 4.3 0.00 0.00 0.00 1 1017.8
20260905091654 57 342 4.3 6.1 0.00 0.00 0.00 1 1017.8
20260905090631 57 346 2.6 3.5 0.00 0.00 0.00 1 1017.6
20260905085626 57 333 2.6 3.5 0.00 0.00 0.00 1 1017.7
20260905084622 57 0 0.9 1.7 0.00 0.00 0.00 1 1017.4
20260905083639 57 0.0 0.0 0.00 0.00 0.00 1 1017.6
20260905082715 57 301 1.7 2.6 0.00 0.00 0.00 1 1017.4
20260905081651 57 331 2.6 4.3 0.00 0.00 0.00 1 1017.2
20260905080647 58 346 2.6 3.5 0.00 0.00 0.00 1 1017.2
20260905075623 57 332 4.3 6.1 0.00 0.00 0.00 1 1017.2
20260905074619 57 309 2.6 3.5 0.00 0.00 0.00 1 1017.2
20260905073655 56 344 1.7 2.6 0.00 0.00 0.00 1 1016.9
20260905072631 56 345 3.5 5.2 0.00 0.00 0.00 1 1017.0
20260905071628 57 341 2.6 3.5 0.00 0.00 0.00 1 1016.9
20260905070624 57 327 4.3 5.2 0.00 0.00 0.00 1 1017.1
20260905065620 57 343 4.3 5.2 0.00 0.00 0.00 1 1017.0
20260905064718 57 326 3.5 4.3 0.00 0.00 0.00 1 1016.8
20260905063633 57 343 4.3 5.2 0.00 0.00 0.00 1 1016.4
20260905062629 57 329 5.2 6.1 0.00 0.00 0.00 1 1016.6
20260905061625 57 332 6.1 7.8 0.00 0.00 0.00 1 1016.4
20260905060621 57 328 3.5 6.1 0.00 0.00 0.00 1 1016.7
20260905055617 57 310 2.6 3.5 0.00 0.00 0.00 1 1016.4
20260905054634 57 322 3.5 4.3 0.00 0.00 0.00 1 1016.3
20260905053630 58 336 3.5 5.2 0.00 0.00 0.00 1 1016.5
20260905052646 59 331 3.5 5.2 0.00 0.00 0.00 1 1016.3
20260905051642 59 338 4.3 4.3 0.00 0.00 0.00 1 1016.4
20260905050618 59 329 3.5 4.3 0.00 0.00 0.00 1 1016.5
20260905045634 59 308 3.5 4.3 0.00 0.00 0.00 1 1016.5
20260905044631 60 338 7.8 8.7 0.00 0.00 0.00 1 1016.3
20260905043626 60 336 5.2 7.0 0.00 0.00 0.00 1 1016.1
20260905042622 61 339 4.3 5.2 0.00 0.00 0.00 1 1016.1
20260905041618 61 352 4.3 5.2 0.00 0.00 0.00 1 1016.2
20260905040635 62 356 3.5 3.5 0.00 0.00 0.00 1 1016.3
20260905035631 62 329 5.2 6.1 0.00 0.00 0.00 1 1016.2
20260905034627 64 339 5.2 7.8 0.00 0.00 0.00 1 1016.2
20260905033623 66 336 2.6 3.5 0.00 0.00 0.00 1 1016.0
20260905032619 66 315 1.7 2.6 0.00 0.00 0.00 1 1016.0
20260905031636 67 296 2.6 3.5 0.00 0.00 0.00 1 1015.9
20260905030631 66 294 2.6 2.6 0.00 0.00 0.00 1 1015.9